Location: Rometta
(44.2000°N, 10.0500°E)
Time: 17:33:58
(UTC+00:00)

Aureole 2 Rocket - Pass Details

Date: 20 January 2021
Orbit: 285 x 373 km, 73.9° (Epoch: 01 March)

Event Time Altitude Azimuth Distance (km) Brightness Sun altitude
Rises 16:44:50 0° 158° (SSE) 2,186 5.9 -5.9°
Reaches altitude 10° 16:47:31 10° 129° (SE) 1,370 4.6 -6.4°
Maximum altitude 16:49:02 13° 99° (E) 1,211 4.1 -6.6°
Drops below altitude 10° 16:50:35 10° 69° (ENE) 1,400 4.2 -6.9°
Enters shadow 16:50:51 - 64° (ENE) 1,464 4.3 -6.9°
